Regional Weather Roundup
Issued by NWS Wakefield, VA

Home | Current Version | Previous Version | Graphics & Text | Print | Product List | Glossary On
Versions: 1 2 3 4 5 6 7 8 9 10 11 12 13 14 15 16 17 18 19 20 21 22 23 24 25 26 27
000
ASUS41 KAKQ 281115
RWRAKQ

REGIONAL WEATHER ROUNDUP
NATIONAL WEATHER SERVICE WAKEFIELD VA
700 AM EDT SAT MAY 28 2016

Note: "fair" indicates few or no clouds below 12,000 feet with no
significant weather and/or obstructions to visibility. * = Denotes
station may not report precipitation (e.g., rain,snow,etc.),
thunder or fog.

VAZ042-051-052>054-056-281200-
NORTHERN VIRGINIA

CITY           SKY/WX    TMP DP  RH WIND       PRES   REMARKS
WASH NATIONAL  FAIR      71  63  75 S9        30.14R
DULLES         FAIR      70  63  78 S3        30.13R
FORT BELVOIR   FAIR      67  63  85 SE2       30.14R
QUANTICO       FAIR      71  61  70 S8        30.14R
FREDERICKSBRG* FAIR      69  62  78 SW3       30.13R
STAFFORD*      FAIR      67  60  77 S5        30.18R
WARRENTON      FAIR      71  59  66 CALM      30.14R
CULPEPER*      FAIR      70  64  83 CALM      30.14R
MANASSAS*      SUNNY     68  64  88 CALM      30.13R
LEESBURG*      FAIR      70  70 100 CALM      30.14R
WINCHESTER     FAIR      66  64  94 CALM      30.14R
FRONT ROYAL*   FAIR      66  64  94 S3        30.13R
LURAY*         FAIR      63  63 100 CALM      30.16R FOG
$$

VAZ048-049-060>072-079>083-281200-
CENTRAL AND SOUTH CENTRAL VIRGINIA

CITY           SKY/WX    TMP DP  RH WIND       PRES   REMARKS
RICHMOND       FAIR      64  61  90 CALM      30.17R
CHESTERFIELD*  FAIR      64  52  63 S3        30.18R
PETERSBURG*    FAIR      64  64 100 CALM      30.18R
HANOVER        FAIR      67  58  72 S6        30.17R
TAPPAHANNOCK*  FAIR      66  61  83 S5        30.17R
QUINTON*       FAIR      65  62  88 E7        30.17R
CHARLOTTSVILLE FAIR      69  63  81 S7        30.14R
GORDONSVILLE*  FAIR      67  64  91 CALM      30.14R
ORANGE*        FAIR      68  64  88 CALM      30.16R
LOUISA*        FAIR      70  64  83 S5        30.14R
BUMPASS*       FAIR      65  61  85 CALM      30.15R
FARMVILLE*     FAIR      64  64 100 CALM      30.15R
CREWE*         FAIR      61  61 100 CALM      30.16R
FORT PICKETT*  NOT AVBL
CHASE CITY*    FAIR      62  60  94 CALM      30.18R
CLARKSVILLE*   FAIR      61  61 100 CALM      30.17R
SOUTH HILL*    FAIR      58  57  96 CALM      30.23R
LAWRENCEVILLE* FAIR      61  60  97 CALM      30.18R
EMPORIA*         N/A     59  59 100 CALM      30.19R
$$

VAZ088>098-281200-
SOUTHEAST VIRGINIA

CITY           SKY/WX    TMP DP  RH WIND       PRES   REMARKS
NORFOLK        FAIR      65  62  90 SW3       30.17R
VIRGINIA BEACH FAIR      65  58  78 CALM      30.17R
NORFOLK NAVAL  FAIR      67  63  87 S3        30.19R
WEST POINT*    FAIR      67  61  80 CALM      30.19R
SALUDA*        FAIR      67  64  89 CALM      30.17R
NEWPORT NEWS   FAIR      68  64  87 SW3       30.17R
LANGLEY AFB    FAIR      66  64  91 S5        30.17R
FORT EUSTIS    FAIR      68  61  78 SW1       30.16R
WILLIAMSBURG*  FAIR      68  63  83 CALM      30.18R
HR EXEC AP*      N/A     57  54  88 CALM      30.20R
FRANKLIN*      FAIR      60  58  92 CALM      30.19R
US460-WAKEFLD  FAIR      63  60  90 CALM      30.18R
$$

VAZ020-022-025-037-045-281200-
WEST CENTRAL AND SOUTHWEST VIRGINIA

CITY           SKY/WX    TMP DP  RH WIND       PRES   REMARKS
STAUNTON*      FAIR      62  62 100 CALM      30.19R FOG
WAYNESBORO*    FAIR      63  62  96 CALM      30.18R
HOT SPRINGS VA FAIR      64  63  97 W10       30.26S
LYNCHBURG      FAIR      63  61  93 CALM      30.18R
DANVILLE       FAIR      62  59  90 CALM      30.17R
SOUTH BOSTON*  FAIR      60  58  95 CALM      30.17R
MARTINSVILLE   FAIR      55  55 100 CALM      30.21R FOG
ROANOKE        FAIR      64  62  93 CALM      30.19R
BLACKSBURG     FAIR      61  60  99 CALM      30.25R FOG
DUBLIN*        CLOUDY    60  60 100 CALM      30.24R FOG
MARION*        FOG       56  55  95 CALM      30.25R VSB<1/4
HILLSVILLE*    FAIR      61  61  99 S3        30.23R
RICHLANDS*     FAIR      65  65  99 SE3       30.22R
WISE*          FAIR      61  61 100 CALM      30.21S
ABINGDON*      FAIR      61  61  99 E3        30.19R FOG
$$

MDZ021>025-VAZ099-100-281200-
SOUTHERN MARYLAND AND THE DELMARVA PENINSULA

CITY           SKY/WX    TMP DP  RH WIND       PRES   REMARKS
PATUXENT RIVER SUNNY     69  59  70 VRB5      30.14S
BAY BRIDGE APT SUNNY     72  61  68 S7        30.14R
LEONARDTOWN    SUNNY     68  59  73 SW5       30.16S
DOVER          SUNNY     69  68  94 S9        30.14R
GEORGETOWN     SUNNY     68  63  84 SW7       30.17R
EASTON         SUNNY     72  66  83 S5        30.18S
CAMBRIDGE      SUNNY     68  63  83 CALM      30.15S
SALISBURY      SUNNY     67  64  90 CALM      30.17R
OCEAN CITY     SUNNY     69  64  84 VRB3      30.17R
WALLOPS ISLAND FAIR      67  65  93 S6        30.18R
ACCOMACK*      FAIR      66  61  82 S5        30.17S
$$

NCZ012>017-030>032-281200-
NORTH CENTRAL AND EASTERN NORTH CAROLINA

CITY           SKY/WX    TMP DP  RH WIND       PRES   REMARKS
ROANOKE RAPIDS FAIR      55  55 100 CALM      30.18R FOG
RALEIGH        MOSUNNY   61  59  93 CALM      30.18R
ELIZABETH CITY SUNNY     65  64  97 CALM      30.18R
AHOSKIE*       SUNNY     56  56  98 CALM      30.19R
EDENTON*       SUNNY    N/A N/A N/A CALM      30.18R
CURRITUCK*     SUNNY     62  62  99 CALM      30.18S
KILL DEVIL HLS SUNNY     66  64  94 CALM      30.17R
MANTEO         NOT AVBL
CAPE HATTERAS  SUNNY     74  69  85 SE7       30.16R
TARBORO*       FAIR      56  56  99 CALM      30.19R
GOLDSBORO      MOSUNNY   61  61 100 CALM      30.15R
WASHINGTON     SUNNY     60  59  95 CALM      30.17R
GREENVILLE     SUNNY     59  59 100 CALM      30.18R FOG
NEW BERN       SUNNY     66  63  90 CALM      30.17R
WILMINGTON     MOSUNNY   66  65  96 NE6       30.13R
$$

VAZ048-281200-
ELSEWHERE

CITY           SKY/WX    TMP DP  RH WIND       PRES   REMARKS
HARRISBURG PA  MOSUNNY   71  67  87 SE3       30.12R
BALTIMORE      MOSUNNY   69  63  81 CALM      30.13R
ANNAPOLIS      SUNNY     69  63  81 S6        30.13R
ANDREWS AFB    FAIR      69  60  73 S8        30.13R
PHILADELPHIA   PTSUNNY   69  60  73 S6        30.15R
HENDERSON NC   SUNNY     58  57  94 CALM      30.18R
GREENSBORO     PTCLDY    65  60  84 CALM      30.18R
ROCKY MOUNT    SUNNY     59  59 100 CALM      30.18R
$$

VAZ100-281200-
MARINE

STATION/POSITION TIME  TEMP    WIND        PRES    WAVE   SWELL
                       AIR SEA DIR/SP/G            HT/PER HT/PER
                 (UTC) (F)     (DEG/KT/KT) (MB)    (FT/S) (FT/S)
BRANDYWINE LGT   1000   67     220/ 10/ 10 1021.0R
CAPE MAY NJ      1000   66 67  170/  4/  5 1020.8R
LEWES DE         1000   69 61  220/  5/  9 1020.9R
15NM E FENWICK I 1050   63 60              1021.9R   2/ 7
OCEAN-CITY-INLET 1000   60 58  210/  7/  8 1021.6R
WACHAPREAGUE VA  1000   67 73  230/  2/  3 1021.1R
THOMAS POINT MD  1100   69 65  170/ 11/ 12 1021.8R
GOOSES REEF MD   1100   70 66  200/ 10/ 12 1021.4S   1/ 4
COVE POINT MD    1000   69     220/  8/ 11 1021.0R
SOLOMONS ISLAND  1000   69 67  180/  3/  5   N/A
BISHOPS HEAD MD  1000   70 72  200/ 12/ 13 1021.0R
PINEY POINT MD   1000          220/  5/  6   N/A
POTOMAC MD       1100   69 67  220/  4/  6 1020.3R   1/ 3
CAMBRIDGE MD     1000   69 66  190/  3/  5 1020.0R
LEWISETTA VA     1000   69 64  240/  8/ 10 1020.5R
RAPPAHANNOCK LGT 1000          190/ 10/ 11 1021.9R
STINGRAY PT      1000   69 67  210/  6/  8 1021.6R   1
YORK RVR RNG VA  1000   69     210/  6/  7 1020.7R
YORKTOWN VA      1000   67 66   CALM  /  2 1021.0R
JAMESTOWN VA     1100   68 73  190/  4/  6   N/A     0
DOMINION TERM VA 1000   68     200/  3/  4 1021.4R
KIPTOPEKE VA     1000      69  160/  4/  5   N/A
CHES BAY BRIDGE  1000   67 67  150/  3/  3 1021.4R
CAPE HENRY VA    1000   67     190/  5/  6   N/A
CHESAPEAKE LGHT  1000   67     200/  7/  7 1022.3R
WILLOUBY STN VA  1000   67     240/  4/  5 1022.3R
CAPE HENRY BUOY  1012      66                N/A     2/ 7
1ST LANDING BUOY 1100   68 68  150/  4/  4 1021.9R   1
CAPE CHARLES BUO 1026      64                N/A     2/ 7   2/ 7
OFFSHORE WE BUOY 1021      67                N/A     2/ 7   2/ 7
64NM E OF VA BCH 1050   66 62   80/  6/  6 1022.0R   3/ 7   2/ 7
DUCK PIER NC     1000   63 59   60/  3/  3 1020.9R
44100 DUCK FRF   1024      66                N/A     3/ 8
44056 DUCK FRF   1011      62                N/A     2/ 8
OREGON INLET NC  1000   67 73   50/  4/  5 1021.2R
HATTERAS NC      1000   74 74  110/  5/  7 1020.4R
DIAMOND SHLS NC  1050   77 78  120/ 12/ 14 1021.0R   4/ 8   3/ 8
CAPE LOOKOUC1F1C2F2C3F3C4F4C5F5C6F6C7F7C8M1C9!



USA.gov is the U.S. government's official web portal to all federal, state and local government web resources and services.